SCP
0 0 0 0 0 0 0 0 0 0 0 0 0 0 0 0 0 0 0 0 0 0 0 0 0 0 0 0 0 0 0 0 0 0 0 0 0 0 0 0 0 0 0
0 0 0 0 0 0 0 0 0 0 0 0 0 0 0 0 0 0 0 0 0 0 0 0 0 0 0 0 0 0 0 0 0 0 0 0 0 0 0 0 0 0 0
1 1 1 1 1 0 0 0 0 0 0 0 0 0 0 0 0 0 0 0 0 0 0 0 0 0 0 0 0 0 0 0 0 0 0 0 0 0 0 0 0 0 0
1 1 1 1 1 1 0 0 0 0 0 0 0 0 0 0 0 0 0 0 0 0 0 0 0 0 0 0 0 0 0 0 0 0 0 0 0 0 0 0 0 0 0
1 1 1 1 1 0 0 0 0 0 0 0 0 0 0 0 0 0 0 0 0 0 0 0 0 0 0 0 0 0 0 0 0 0 0 0 0 0 0 0 0 0 0
1 1 1 1 1 0 0 0 0 0 0 0 0 0 0 0 0 0 0 0 0 0 0 0 0 0 0 0 0 0 0 0 0 0 0 0 0 0 0 0 0 0 0
1 1 1 1 1 0 0 0 0 0 0 0 0 0 0 0 0 0 0 0 0 0 0 0 0 0 0 0 0 0 0 0 0 0 0 0 0 0 0 0 0 0 0
1 1 1 1 1 0 0 0 0 0 0 0 0 0 0 0 0 0 0 0 0 0 0 0 0 0 0 0 0 0 0 0 0 0 0 0 0 0 0 0 0 0 0
1 1 1 1 1 1 0 0 0 0 0 0 0 0 0 0 0 0 0 0 0 0 0 0 0 0 0 0 0 0 0 0 0 0 0 0 0 0 0 0 0 0 0
1 1 1 1 1 1 0 0 0 0 0 0 0 0 0 0 0 0 0 0 0 0 0 0 0 0 0 0 0 0 0 0 0 0 0 0 0 0 0 0 0 0 0
1 1 1 1 1 1 1 0 0 0 0 0 0 0 0 0 0 0 0 0 0 0 0 0 0 0 0 0 0 0 0 0 0 0 0 0 0 0 0 0 0 0 0
2 1 1 1 1 1 0 0 0 0 0 0 0 0 0 0 0 0 0 0 0 0 0 0 0 0 0 0 0 0 0 0 0 0 0 0 0 0 0 0 0 0 0
2 1 1 1 1 1 0 0 0 0 0 0 0 0 0 0 0 0 0 0 0 0 0 0 0 0 0 0 0 0 0 0 0 0 0 0 0 0 0 0 0 0 0
2 1 1 1 1 1 0 0 0 0 0 0 0 0 0 0 0 0 0 0 0 0 0 0 0 0 0 0 0 0 0 0 0 0 0 0 0 0 0 0 0 0 0
2 1 1 1 1 1 0 0 0 0 0 0 0 0 0 0 0 0 0 0 0 0 0 0 0 0 0 0 0 0 0 0 0 0 0 0 0 0 0 0 0 0 0
1 1 1 1 1 0 0 0 0 0 0 0 0 0 0 0 0 0 0 0 0 0 0 0 0 0 0 0 0 0 0 0 0 0 0 0 0 0 0 0 0 0 0
1 1 1 1 1 0 0 0 0 0 0 0 0 0 0 0 0 0 0 0 0 0 0 0 0 0 0 0 0 0 0 0 0 0 0 0 0 0 0 0 0 0 0
1 1 1 1 1 0 0 0 0 0 0 0 0 0 0 0 0 0 0 0 0 0 0 0 0 0 0 0 0 0 0 0 0 0 0 0 0 0 0 0 0 0 0
1 1 1 1 1 0 0 0 0 0 0 0 0 0 0 0 0 0 0 0 0 0 0 0 0 0 0 0 0 0 0 0 0 0 0 0 0 0 0 0 0 0 0
1 1 1 1 0 0 0 0 0 0 0 0 0 0 0 0 0 0 0 0 0 0 0 0 0 0 0 0 0 0 0 0 0 0 0 0 0 0 0 0 0 0 0
1 1 0 0 0 0 0 0 0 0 0 0 0 0 0 0 0 0 0 0 0 0 0 0 0 0 0 0 0 0 0 0 0 0 0 0 0 0 0 0 0 0 0
1 0 0 0 0 0 0 0 0 0 0 0 0 0 0 0 0 0 0 0 0 0 0 0 0 0 0 0 0 0 0 0 0 0 0 0 0 0 0 0 0 0 0
0 0 0 0 0 0 0 0 0 0 0 0 0 0 0 0 0 0 0 0 0 0 0 0 0 0 0 0 0 0 0 0 0 0 0 0 0 0 0 0 0 0 0
0 0 0 0 0 0 0 0 0 0 0 0 0 0 0 0 0 0 0 0 0 0 0 0 0 0 0 0 0 0 0 0 0 0 0 0 0 0 0 0 0 0 0
0 0 0 0 0 0 0 0 0 0 0 0 0 0 0 0 0 0 0 0 0 0 0 0 0 0 0 0 0 0 0 0 0 0 0 0 0 0 0 0 0 0 0
0 0 0 0 0 0 0 0 0 0 0 0 0 0 0 0 0 0 0 0 0 0 0 0 0 0 0 0 0 0 0 0 0 0 0 0 0 0 0 0 0 0 0
Wind_Speed
5 5 4 4 4 4 3 2 2 2 2 2 2 2 3 3 3 3 3 3 2 3 2 2 2 2 1 1 1 1 1 1 2 2 2 3 3 3 3 3 4 4 7
6 6 5 5 5 4 4 3 3 2 2 2 2 2 3 3 3 3 4 4 4 4 4 4 3 2 2 2 1 2 2 2 3 4 3 3 3 3 3 2 3 4 5
7 7 6 6 5 4 4 4 3 3 3 3 2 3 3 3 4 4 4 4 4 5 5 4 4 3 3 2 2 2 3 3 3 4 4 3 2 2 2 3 4 2 4
7 7 7 6 5 5 5 5 4 4 4 3 3 3 3 4 4 4 4 5 5 6 6 5 5 4 4 3 3 3 3 4 4 4 4 3 2 2 1 2 2 2 2
7 7 7 7 6 6 6 5 5 4 4 4 4 4 3 3 4 4 4 5 5 6 6 7 7 8 9 6 4 4 3 2 3 4 4 3 3 1 1 1 2 2 3
7 7 7 7 7 7 6 6 5 5 4 4 4 4 4 5 6 5 3 5 5 5 6 6 6 7 8 9 10 9 7 3 2 2 3 3 2 1 1 0 1 1 2
8 8 8 8 8 7 7 7 6 5 5 4 4 5 5 6 6 5 4 4 5 5 5 4 5 6 5 6 7 6 7 8 5 2 3 2 2 1 0 1 1 1 2
9 8 8 8 8 8 7 7 6 5 5 4 4 5 5 5 4 3 1 4 5 5 5 5 5 5 5 4 5 6 6 5 4 3 4 3 3 2 1 1 1 2 2
9 9 9 8 8 8 8 7 6 5 5 5 4 4 5 5 3 1 2 4 4 5 5 5 4 5 6 3 4 5 4 4 6 6 6 5 5 4 3 1 0 1 1
9 9 9 8 8 8 8 7 6 6 5 5 5 4 4 4 3 0 3 2 4 4 4 5 7 6 5 4 2 3 3 2 3 4 4 3 3 3 1 2 2 2 1
9 9 9 8 8 8 7 6 6 6 6 5 5 4 4 3 4 2 3 1 2 3 3 4 5 5 4 4 2 2 2 1 2 2 3 3 2 2 2 1 1 3 3
10 9 9 9 8 7 7 7 6 6 6 6 5 5 4 4 2 3 1 2 3 1 2 3 5 5 4 2 2 2 2 5 1 1 1 1 1 1 1 1 0 1 2
10 10 9 9 7 7 8 7 7 6 5 5 5 4 4 4 4 5 4 1 2 0 2 5 4 5 5 4 2 2 4 2 1 1 0 1 1 1 0 1 2 3 3
10 10 9 9 8 7 6 6 5 5 5 5 5 4 4 4 4 4 5 5 5 4 4 5 6 5 4 1 4 4 2 1 2 1 0 0 0 1 1 1 1 1 2
10 9 9 8 7 7 6 3 4 3 1 2 3 3 3 3 3 1 2 3 3 3 3 4 5 4 4 3 2 2 2 2 2 1 2 1 1 1 1 1 2 2 2
9 9 7 7 7 6 7 5 4 3 5 4 3 1 2 4 5 4 2 1 1 0 3 3 3 3 3 2 2 3 2 2 2 2 2 2 2 2 2 2 2 3 3
8 8 7 7 7 6 6 6 6 4 3 2 2 1 1 4 5 5 4 3 3 4 5 3 3 2 2 3 3 3 2 2 2 2 2 2 2 3 2 2 2 3 3
8 8 7 6 6 6 6 6 5 6 6 5 4 4 4 5 6 6 6 5 5 5 5 4 4 3 3 3 3 3 2 3 3 3 3 2 3 3 3 3 2 3 3
7 6 6 6 6 5 5 5 5 5 5 4 5 5 6 6 6 5 7 6 4 4 4 4 4 3 3 3 3 3 2 2 2 3 2 2 2 2 2 3 3 1 4
5 5 5 5 5 5 5 5 5 5 5 5 5 5 6 6 5 6 6 5 4 3 3 3 3 3 3 3 3 3 3 3 3 3 3 2 3 3 3 4 3 3 3
5 5 6 5 5 5 5 5 5 5 5 4 4 4 4 5 5 5 4 4 4 3 3 3 3 3 3 3 3 3 4 3 3 3 3 3 3 3 3 3 3 4 4
4 5 6 5 4 4 4 4 4 4 5 5 4 5 5 5 4 4 4 4 4 3 3 3 3 3 3 3 4 4 4 3 3 3 3 3 3 3 4 4 4 4 4
4 5 5 5 4 5 5 4 4 4 4 4 4 4 5 4 4 4 4 4 3 3 3 3 4 3 3 3 3 3 3 3 3 3 4 4 3 3 4 4 5 5 5
4 4 4 4 4 4 4 4 4 4 4 3 4 4 4 4 4 4 4 4 3 3 4 3 3 3 4 4 3 3 2 2 3 3 4 5 5 4 4 4 4 5 5
4 4 4 4 5 4 4 4 4 4 4 4 4 4 4 4 4 5 5 4 5 4 5 4 3 4 5 5 4 2 2 1 2 4 5 5 5 5 5 5 4 5 5
4 4 4 4 4 4 4 4 4 4 4 4 4 4 4 4 4 4 4 4 4 4 4 4 4 4 4 4 3 2 2 3 3 4 6 6 6 5 4 5 5 5 5
Wind_Direction
171 169 164 161 154 148 139 125 118 102 83 70 60 46 39 36 35 35 36 35 30 30 18 37 37 24 41 62 151 171 139 121 134 125 114 92 84 81 92 92 96 97 91
164 163 160 155 149 150 140 129 125 115 101 90 80 68 59 53 47 45 37 38 38 38 38 44 46 56 67 60 60 73 88 103 138 134 124 117 107 99 92 87 91 88 95
158 157 155 154 154 153 144 138 130 119 111 105 97 81 62 58 56 56 54 51 50 49 51 51 49 56 54 61 67 77 94 105 115 125 116 111 108 101 114 98 90 89 109
156 157 155 156 157 152 145 142 138 130 122 113 98 85 75 68 64 66 71 67 63 59 56 52 49 51 52 59 73 77 87 106 114 121 119 120 115 123 138 136 126 120 100
158 159 157 154 152 149 147 143 136 133 124 114 108 103 98 87 64 65 86 84 77 73 68 63 61 55 44 36 51 73 94 109 117 118 120 122 108 115 120 133 116 132 117
159 158 154 152 153 152 149 142 138 133 123 122 116 104 92 76 58 40 46 88 83 80 78 78 87 80 72 64 56 53 46 61 83 104 107 103 104 95 49 86 122 122 110
156 154 153 154 154 153 150 144 144 143 133 123 115 106 95 81 71 59 36 78 79 72 74 72 75 82 91 94 92 92 72 50 36 41 85 84 99 88 6 106 66 39 51
157 155 155 157 155 154 150 147 146 142 137 131 124 116 112 101 89 79 49 99 87 80 77 77 78 78 67 77 101 97 93 79 61 65 71 67 73 56 296 291 196 169 152
161 161 161 161 157 156 154 151 151 149 144 143 132 130 127 119 107 52 301 114 101 90 81 72 76 89 47 9 102 103 101 111 99 75 58 70 67 50 350 309 302 239 161
165 164 162 162 160 159 156 154 152 152 150 150 138 140 139 135 128 169 286 146 122 119 112 100 70 60 52 7 102 112 113 105 113 126 132 150 147 134 153 316 322 312 307
158 157 157 157 158 156 152 153 154 156 152 152 149 150 144 135 139 136 314 254 154 144 130 119 99 87 72 31 11 72 49 305 161 153 146 142 144 141 148 149 327 322 325
151 151 152 156 156 151 153 155 157 156 158 161 164 164 153 149 128 130 76 346 332 130 124 112 107 121 108 68 57 49 300 274 213 156 136 119 120 117 110 117 136 330 335
151 152 153 155 155 156 162 164 166 174 180 174 176 175 166 153 141 142 149 151 318 231 87 77 111 162 177 161 160 241 248 237 236 213 141 105 97 69 321 187 190 202 217
155 156 158 159 160 161 172 174 177 182 187 184 184 181 171 167 169 169 171 171 176 184 171 159 180 197 216 181 183 201 219 300 306 294 284 270 198 174 224 274 262 219 227
161 162 163 163 161 163 169 169 189 171 176 206 189 184 183 180 141 134 210 185 192 171 192 197 199 191 195 189 192 201 218 202 222 270 274 252 245 249 257 273 283 276 268
165 167 167 167 167 171 165 159 66 63 85 66 30 346 117 104 125 132 132 103 75 152 235 217 212 217 224 216 211 204 213 230 243 252 267 280 276 270 270 272 271 278 286
172 169 172 171 170 177 175 175 167 142 113 108 107 75 112 136 147 157 161 163 184 206 227 228 224 230 239 238 235 233 227 217 245 249 255 266 272 273 274 272 273 282 286
177 169 176 175 176 180 182 184 182 180 179 176 171 175 174 171 173 174 172 181 191 206 229 230 228 229 236 245 247 247 242 228 224 240 248 259 269 275 278 280 282 301 297
177 173 178 177 178 179 183 187 187 187 190 182 165 159 176 178 181 189 196 217 218 211 215 223 233 237 237 236 243 249 255 258 261 261 258 273 278 280 285 287 286 270 283
175 162 171 175 177 178 181 185 187 189 193 192 188 175 165 181 191 187 202 221 226 224 230 232 235 240 238 239 233 235 233 232 231 245 260 267 269 273 270 274 289 289 281
169 162 177 184 181 181 181 187 191 196 199 196 192 167 177 202 205 202 205 206 214 219 223 229 229 228 226 228 229 229 234 235 238 251 253 258 268 270 276 279 282 284 290
175 171 182 190 180 178 180 188 193 199 201 197 181 162 180 221 208 197 203 206 208 213 215 221 226 221 221 224 227 229 231 233 239 248 253 254 253 263 271 281 293 297 292
189 180 179 176 176 167 183 191 193 197 198 193 185 177 185 209 210 206 204 204 199 204 212 222 230 227 217 220 228 233 241 243 244 253 257 253 256 260 266 274 278 282 285
193 189 182 173 173 180 186 185 187 191 193 190 190 190 192 199 208 209 211 205 201 207 213 219 225 222 221 228 231 229 231 269 270 254 260 272 271 270 273 275 279 286 284
196 191 185 178 175 180 184 186 186 187 189 191 194 195 198 202 206 207 205 201 203 206 207 213 222 225 223 228 238 237 128 156 261 287 259 258 265 268 274 281 287 291 290
194 189 186 182 179 183 187 189 190 190 192 194 196 196 199 204 207 203 196 199 203 199 204 210 217 223 227 224 220 191 162 183 214 256 271 268 267 266 276 279 284 283 285